User: anonymous   Login
Location: ??? ???
(33.4974°N, 35.4618°E)
Time: 21:16:00
(UTC+00:00)
Language:

In-Cosmos 22 Rocket - Orbit

View from above orbital plane
View from above orbital plane
View from above satellite
View from above satellite

Ground track
Ground track

The orbit data is extracted from the following two-line orbital elements,

1 12646U 81075B   21016.59502635  .00000052  00000-0  19729-4 0  9994
2 12646  81.2252  62.2276 0067182 210.0733 259.6385 14.15906916 36814
Epoch (UTC): 16 January 2021 14:16:50
Eccentricity: 0.0067182
inclination: 81.2252°
perigee height: 791 km
apogee height: 888 km
right ascension of ascending node: 62.2276°
argument of perigee: 210.0733°
revolutions per day: 14.15906916
mean anomaly at epoch: 259.6385°
orbit number at epoch: 3681

The dashed part of the orbit path shows where the satellite is in the earth's shadow,  

DLR